Weather in Novorossiysk

Russia / Krasnodar Krai     44°43′26″N   37°46′08″E
temp.,
°C
wind,
m/s
gust,
m/s
humid.,
%
clouds,
%
prec.,
mm/h
press.,
hPa
HPBL,
m
18 may, tue
tue1800:00+13ssw499699 0.1 1010553
03:00+13s389832 0.2 1011421
06:00+13s499619 0.1 1011501
09:00+16s47762 0.1 1012640
12:00+18s58676 0.0 1012760
15:00+18sse596888 0.0 1011655
18:00+16sse3876100 0.0 1010452
21:00+14s2695100 0.0 1010279
19 may, wed
wed1900:00+13s2699100 2.1 1010273
03:00+13w61196100 12.0 1010711
06:00+12ssw3898100 11.8 1011487
09:00+14sw6109213 14.1 1012855
12:00+15sw813848 1.3 10131314
15:00+16sw813786 2.3 10141322
18:00+14ssw812895 0.8 1015981
21:00+13ssw7119524 1.0 1016729
20 may, thu
thu2000:00+13ssw5119660 0.2 1016745
03:00+12s259638 0.3 1015124
06:00+12se23965 0.0 101580
09:00+18se255910 0.0 1014440
12:00+22sse2435100 0.0 1013824
15:00+24ese233446 0.0 1011956
18:00+21ene3662100 0.0 1011400
21:00+16nne34896 0.0 101064
21 may, fri
fri2100:00+15nne33865 0.0 100934
03:00+16nne227018 0.0 100924
06:00+17nne22585 0.0 100823
09:00+25ne23400 0.0 1008193
12:00+30e13280 0.0 10071111
15:00+25sse24400 0.0 1008350
18:00+25ssw11475 0.0 100744
21:00+18s01550 0.0 100811
22 may, sat
sat2200:00+17sse11630 0.0 100716
03:00+17ese1163100 0.0 100611
06:00+17se2579100 0.0 1007166
09:00+20sse3669100 0.0 1007268
12:00+27sse124598 0.0 1007316
15:00+24ene0260100 0.0 1006196
18:00+24nne247785 0.0 1006136
21:00+20ene119396 0.0 100826